Voltar ao catálogo

STARLINK-37738

AtivoComunicaçõesSSO
NORAD 69316·PAYLOAD·🇺🇸 United States

Lançado May 30, 2026 de Vandenberg Space Force Base

Loading…

Próximas Passagens (próximas 24 horas)

TLE

AtualizadoSource: CelesTrak SupGP

Época: Sep 14, 2026, 23:00 UTC

1 69316C 26119W   26257.95881944  .00054409  00000+0  16892-2 0  2570
2 69316  97.2829 282.8352 0001478  85.5316  76.5432 15.33408081    13

Acompanhe STARLINK-37738 em tempo real com AllMySat

Download on the App Store